TimeCST,TemperatureF,Dew PointF,Humidity,Sea Level PressureIn,VisibilityMPH,Wind Direction,Wind SpeedMPH,Gust SpeedMPH,PrecipitationIn,Events,Conditions,WindDirDegrees,DateUTC
12:52 AM,41.0,35.1,79,30.18,10.0,Calm,Calm,-,N/A,,Clear,0,2012-11-21 06:52:00
1:52 AM,41.0,36.0,82,30.17,10.0,SE,4.6,-,N/A,,Clear,140,2012-11-21 07:52:00
2:52 AM,43.0,36.0,76,30.16,10.0,SE,4.6,-,N/A,,Clear,130,2012-11-21 08:52:00
3:52 AM,39.9,35.1,83,30.16,10.0,SSE,6.9,-,N/A,,Clear,150,2012-11-21 09:52:00
4:52 AM,42.1,36.0,79,30.16,10.0,Calm,Calm,-,N/A,,Clear,0,2012-11-21 10:52:00
5:52 AM,42.1,37.0,82,30.17,10.0,SSE,8.1,-,N/A,,Clear,150,2012-11-21 11:52:00
6:52 AM,43.0,37.0,80,30.17,10.0,SSE,6.9,-,N/A,,Clear,150,2012-11-21 12:52:00
7:52 AM,45.0,39.0,80,30.18,10.0,SSE,6.9,-,N/A,,Clear,150,2012-11-21 13:52:00
8:52 AM,53.1,43.0,69,30.18,10.0,South,10.4,-,N/A,,Clear,170,2012-11-21 14:52:00
9:52 AM,59.0,44.1,58,30.17,10.0,South,19.6,26.5,N/A,,Clear,180,2012-11-21 15:52:00
10:52 AM,63.0,46.0,54,30.14,10.0,South,20.7,25.3,N/A,,Clear,180,2012-11-21 16:52:00
11:52 AM,66.9,46.0,47,30.11,10.0,South,21.9,28.8,N/A,,Clear,190,2012-11-21 17:52:00
12:52 PM,72.0,46.0,40,30.05,10.0,South,25.3,34.5,N/A,,Clear,190,2012-11-21 18:52:00
1:52 PM,73.0,43.0,34,30.01,10.0,SSW,24.2,35.7,N/A,,Clear,200,2012-11-21 19:52:00
2:52 PM,73.9,44.1,34,29.99,10.0,South,28.8,39.1,N/A,,Clear,190,2012-11-21 20:52:00
3:52 PM,73.9,39.0,28,29.96,10.0,SSW,19.6,34.5,N/A,,Clear,200,2012-11-21 21:52:00
4:52 PM,70.0,39.9,33,29.96,10.0,South,18.4,-,N/A,,Clear,190,2012-11-21 22:52:00
5:52 PM,66.0,39.9,38,29.96,10.0,South,15.0,-,N/A,,Clear,180,2012-11-21 23:52:00
6:52 PM,64.0,45.0,50,29.95,10.0,South,13.8,-,N/A,,Clear,170,2012-11-22 00:52:00
7:52 PM,64.0,43.0,46,29.95,10.0,South,17.3,-,N/A,,Clear,180,2012-11-22 01:52:00
8:52 PM,62.1,44.1,52,29.93,10.0,South,16.1,-,N/A,,Clear,180,2012-11-22 02:52:00
9:52 PM,62.1,44.1,52,29.92,10.0,South,18.4,-,N/A,,Clear,180,2012-11-22 03:52:00
10:52 PM,61.0,44.1,54,29.89,10.0,South,17.3,-,N/A,,Clear,180,2012-11-22 04:52:00
11:52 PM,59.0,44.1,58,29.87,10.0,South,13.8,-,N/A,,Clear,170,2012-11-22 05:52:00